Regional Weather Roundup
Issued by NWS Midland/Odessa, TX

Skip options and go directly to product.
Home | Oldest Version | Previous Version | Current Version | All | Graphics & Text | Save Text | Print | Product List | Glossary On

Skip product version selection by date and time.   
265
ASUS44 KMAF 020910
RWRMAF
MIDLAND AREA WEATHER ROUNDUP
NATIONAL WEATHER SERVICE MIDLAND TX
400 AM CDT THU APR 02 2015

...IN SOUTHWEST TEXAS AND SOUTHEAST NEW MEXICO...

CITY           SKY/WX    TMP DP  RH WIND       PRES   REMARKS
ALPINE         CLEAR     59  33  37 W12       30.04F
ANDREWS        FAIR      60  59  96 SW10      29.88S
ARTESIA        CLEAR     61  32  33 W13       29.89R
BIG SPRING     CLEAR     65  58  79 S15       29.88S
CARLSBAD       CLEAR     60  35  39 SW12      29.86S
DRYDEN           N/A     63  60  90 N8        29.87S
FORT STOCKTON  CLEAR     64  38  38 SW14      29.89S
GUAD PASS      CLEAR     59  34  39 W12G31    30.00S
HOBBS          CLEAR     63  32  31 W13       29.89S
MARFA          CLEAR     46  36  66 N8        30.04F
MIDLAND AIRPK  CLEAR     65  59  81 SW8       29.88R
MIDLAND INTL   CLEAR     64  59  83 SW10      29.87R
ODESSA         CLEAR     64  58  80 SW12      29.89R
PECOS          CLEAR     56  39  54 S6        29.87R
PRESIDIO       FAIR      63  41  45 NW6       29.93R
SEMINOLE       CLEAR     53  35  52 SW5       29.87S
SNYDER         CLEAR     63  57  81 S8        29.84S
WINK           CLEAR     56  37  49 SE3       29.85S
$$
...OTHER STATIONS IN TEXAS...

CITY           SKY/WX    TMP DP  RH WIND       PRES   REMARKS
ABILENE        CLEAR     68  59  73 S20G30    29.80F
AMARILLO       CLOUDY    57  31  37 N13       29.82S
AUSTIN         CLOUDY    69  66  90 S12       29.90F
BROWNSVILLE    CLOUDY    73  71  93 S14       29.90F FOG
CORPUS CHRISTI MOCLDY    71  69  93 S14       29.90S
DALLAS FTW     CLOUDY    69  65  86 S22G28    29.81F
DEL RIO        CLEAR     67  65  93 E10       29.86F FOG
EL PASO        PTCLDY    71  38  29 W22G29    29.94F
HOUSTON INT    CLOUDY    71  68  90 S7        29.95S
LUBBOCK        PTCLDY    58  34  40 SW13      29.81S
SAN ANGELO     CLEAR     67  60  78 S17       29.84F
SAN ANTONIO    DRIZZLE   70  67  90 S10       29.92F
WACO           CLOUDY    68  65  90 S14       29.87F
WICHITA FALLS  NOT AVBL
$$
...OTHER LOCATIONS IN NEW MEXICO...

CITY           SKY/WX    TMP DP  RH WIND       PRES   REMARKS
ALAMAGORDO     CLEAR     57  32  38 SE10      29.96R
ALBUQUERQUE    CLEAR     50  22  33 E9        29.98R
CANNON AFB     PTCLDY    58  27  30 W13       29.87R
CLOVIS         PTCLDY    52  28  40 W9        29.86S
HOLLOMAN AFB   CLEAR     60  28  29 SE7       29.93S
ROSWELL        CLEAR     58  31  35 W10       29.86F
RUIDOSO        CLEAR     52  23  32 W6        30.04F
SANTA FE       CLEAR     42  19  39 CALM      29.98R
TRUTH OR CONSE CLEAR     53  26  35 SW3       29.96S
TUCUMCARI      CLEAR     49  27  42 W8        29.82S
$$

USA.gov is the U.S. government's official web portal to all federal, state and local government web resources and services.